Tracking 31027 objects as of 19-Jul-2025
HD Live streaming from Space Station
objects crossing your sky now

STARLINK-4546

Track STARLINK-4546 now!
10-day predictions
STARLINK-4546 is classified as:


NORAD ID: 53422
Int'l Code: 2022-097AL
Perigee: 545.8 km
Apogee: 547.9 km
Inclination: 53.2 °
Period: 95.4 minutes
Semi major axis: 6917 km
RCS: Unknown
Launch date: August 10, 2022
Source: United States (US)
Launch site: AIR FORCE EASTERN TEST RANGE (AFETR)
Your satellite tracking list
STARLINK-31879
Track 1 satellite(s)




NASA's NSSDC Master Catalog

Two Line Element Set (TLE):
1 53422U 22097AL  25199.37433453 -.00001510  00000-0 -76809-4 0  9997
2 53422  53.2170  86.0018 0001533  74.9351 285.1810 15.08837893163276
Source of the keplerian elements: AFSPC